FENGYUN 1C DEB

Satellite information

Favourite Embed

Satellite Type and Status

DEBRISIN ORBIT

Key statistics

Satellite FENGYUN 1C DEB at a glance.

Uptime

9500

Days in orbit

Revolutions

≈ 14.1

Per day

Orbit

SSO

Sun Synchronous Orbit

Inclination

98.8

Latest

Satellite identification and parameters

Extended collection of information and parameters for FENGYUN 1C DEB.

Object identification

Identified? True

Debris? True

Object name: FENGYUN 1C DEB

International designator: 1999-025CUW

Object number (NORAD): 32200

Object ID (CCSDS): 32200

Country: PEOPLES REPUBLIC OF CHINA (PRC)

Current information (Y/N): Y

RCS size: SMALL

Orbital parameters

Period: 101.783 minutes

Inclination: 98.8049 deg

SMA: 7221.197 km

Apoapsis: 873.235 km

Periapsis: 812.888 km

RAAN: 182.9501 deg

Eccentricy: 0.0041784

Argument of periapsis: 182.9888 deg

Mean anomaly: 177.1042 deg

Mean motion: 14.14780331 rev/day

Mean motion (dot): 0.00002035 rev/day2

B* drag term: 0.0010692 1/REarth

Two-line elements (TLE)

Creation date: May 11, 2025, 10:21 p.m.

Reference frame: TEME

Reference center: EARTH

Epoch: May 11, 2025, 2:12 a.m. UTC

TLE line 0: 0 FENGYUN 1C DEB

TLE line 1: 1 32200U 99025CUW 25131.09231619 .00002035 00000-0 10692-2 0 9995

TLE line 2: 2 32200 98.8049 182.9501 0041784 182.9888 177.1042 14.14780331913132

Live tracking on map

Real-time ground track for satellite FENGYUN 1C DEB.

In-orbit conjunctions

A list of the most updated potential collisions computed for object FENGYUN 1C DEB.

Target Orbit TCA Probability of collision Miss distance Type
CZ-6A DEB SSO 2025-05-03 00:18:19 0.0001794491 50.0 (m) DEBRIS
METEOR 2-6 LEO 2025-01-08 14:53:23 0.00117597 153.0 (m) PAYLOAD

Associated space launch

Chinese polar orbiting meteorological satellite

FENGYUN 1C DEB was lifted into orbit during the mission ‘Long March 4B | Feng Yun 1C’, on board a Long March 4B space rocket.

The launch took place on May 10, 1999, 1:33 a.m. from Launch Complex 7.

For more information about the launch, click the button.

Launch to space Long March 4B | Feng Yun 1C
Long March 4B | Feng Yun 1C

Agency: N/A

Status: Launch Successful

Launch date: May 10, 1999, 1:33 a.m. UTC

Rocket: Long March 4B

Launch pad: Launch Complex 7

Location: Taiyuan Satellite Launch Center, People's Republic of China

...

Latest news about this satellite

There are no fresh news available about this satellite. Check back as we update our databases every day.


Newsletter sign-up

Weekly statistics, charts and insights to help you stay on top of the space industry.